JAT612 SCEL-SCSE

Flight info

Callsign JAT612
Flight time 0h 44m
Altitude 30000
Route DONTI1J DONTI UQ802 KUGAP KUGAP5
Aircraft A20N/M-SDE2E3FGHIRWXY/LB1

Departure

Time 2026-04-15 03:42
Airport Comodoro Arturo Merino Benítez International Airport (SCEL)

Arrival

Time 2026-04-15 04:26
Airport La Florida Airport (SCSE)
Time Latitude Longitude Altitude Speed Heading
2026-04-15 03:07 -33.39583 -70.79218 1564 ft 0 kts 178°
2026-04-15 03:28 -33.39584 -70.79218 1564 ft 0 kts 178°
2026-04-15 03:28 -33.39579 -70.79219 1564 ft 1 kts 178°
2026-04-15 03:28 -33.39563 -70.79220 1564 ft 3 kts 178°
2026-04-15 03:29 -33.39541 -70.79221 1564 ft 2 kts 178°
2026-04-15 03:29 -33.39523 -70.79221 1564 ft 2 kts 178°
2026-04-15 03:29 -33.39510 -70.79224 1564 ft 1 kts 135°
2026-04-15 03:29 -33.39507 -70.79227 1564 ft 0 kts 100°
2026-04-15 03:30 -33.39507 -70.79226 1564 ft 0 kts 86°
2026-04-15 03:30 -33.39507 -70.79221 1564 ft 0 kts 86°
2026-04-15 03:32 -33.39506 -70.79218 1564 ft 1 kts 86°
2026-04-15 03:33 -33.39505 -70.79198 1564 ft 3 kts 87°
2026-04-15 03:33 -33.39504 -70.79153 1564 ft 6 kts 87°
2026-04-15 03:33 -33.39500 -70.79089 1564 ft 9 kts 87°
2026-04-15 03:33 -33.39498 -70.79003 1564 ft 11 kts 88°
2026-04-15 03:34 -33.39496 -70.78947 1564 ft 4 kts 83°
2026-04-15 03:34 -33.39475 -70.78893 1564 ft 9 kts 47°
2026-04-15 03:34 -33.39405 -70.78841 1564 ft 12 kts 28°
2026-04-15 03:34 -33.39323 -70.78792 1564 ft 13 kts 13°
2026-04-15 03:35 -33.39230 -70.78790 1564 ft 13 kts 358°
2026-04-15 03:35 -33.39133 -70.78796 1564 ft 13 kts 357°
2026-04-15 03:35 -33.39080 -70.78797 1564 ft 0 kts 358°
2026-04-15 03:35 -33.39026 -70.78799 1564 ft 17 kts 358°
2026-04-15 03:36 -33.38926 -70.78804 1564 ft 17 kts 358°
2026-04-15 03:36 -33.38805 -70.78809 1564 ft 17 kts 358°
2026-04-15 03:36 -33.38686 -70.78814 1564 ft 17 kts 358°
2026-04-15 03:36 -33.38580 -70.78818 1564 ft 16 kts 358°
2026-04-15 03:37 -33.38479 -70.78823 1564 ft 16 kts 358°
2026-04-15 03:37 -33.38363 -70.78828 1564 ft 16 kts 357°
2026-04-15 03:37 -33.38248 -70.78832 1564 ft 16 kts 358°
2026-04-15 03:37 -33.38134 -70.78837 1564 ft 16 kts 358°
2026-04-15 03:38 -33.38020 -70.78842 1564 ft 16 kts 358°
2026-04-15 03:38 -33.37906 -70.78847 1564 ft 16 kts 358°
2026-04-15 03:38 -33.37793 -70.78851 1564 ft 16 kts 358°
2026-04-15 03:38 -33.37692 -70.78856 1564 ft 9 kts 358°
2026-04-15 03:39 -33.37625 -70.78836 1564 ft 10 kts 40°
2026-04-15 03:39 -33.37608 -70.78752 1564 ft 11 kts 90°
2026-04-15 03:39 -33.37624 -70.78680 1564 ft 7 kts 134°
2026-04-15 03:39 -33.37656 -70.78667 1564 ft 0 kts 180°
2026-04-15 03:41 -33.37681 -70.78667 1564 ft 12 kts 179°
2026-04-15 03:41 -33.38034 -70.78649 1564 ft 92 kts 177°
2026-04-15 03:41 -33.38930 -70.78599 1566 ft 161 kts 178°
2026-04-15 03:41 -33.40120 -70.78527 2111 ft 174 kts 178°
2026-04-15 03:42 -33.41294 -70.78467 2987 ft 171 kts 179°
2026-04-15 03:42 -33.42460 -70.78410 3723 ft 175 kts 179°
2026-04-15 03:42 -33.43701 -70.78508 4274 ft 187 kts 202°
2026-04-15 03:42 -33.44666 -70.79574 4731 ft 204 kts 245°
2026-04-15 03:43 -33.44978 -70.81285 5246 ft 220 kts 262°
2026-04-15 03:43 -33.45173 -70.83192 5659 ft 245 kts 263°
2026-04-15 03:43 -33.45410 -70.85301 6235 ft 265 kts 261°
2026-04-15 03:43 -33.45694 -70.87527 6978 ft 276 kts 261°
2026-04-15 03:44 -33.46000 -70.89793 7877 ft 281 kts 261°
2026-04-15 03:44 -33.46320 -70.92111 8535 ft 284 kts 261°
2026-04-15 03:44 -33.46639 -70.94447 8906 ft 286 kts 263°
2026-04-15 03:44 -33.46539 -70.96796 8980 ft 286 kts 288°
2026-04-15 03:45 -33.45530 -70.98814 9009 ft 288 kts 317°
2026-04-15 03:45 -33.43803 -71.00039 9521 ft 295 kts 342°
2026-04-15 03:45 -33.41884 -71.00771 10609 ft 291 kts 343°
2026-04-15 03:45 -33.39916 -71.01505 11239 ft 304 kts 342°
2026-04-15 03:46 -33.37865 -71.02284 11740 ft 320 kts 342°
2026-04-15 03:46 -33.35706 -71.03117 12529 ft 326 kts 342°
2026-04-15 03:46 -33.33567 -71.03949 13388 ft 328 kts 342°
2026-04-15 03:46 -33.31399 -71.04794 14211 ft 331 kts 341°
2026-04-15 03:47 -33.29231 -71.05640 14989 ft 335 kts 341°
2026-04-15 03:47 -33.27015 -71.06507 15754 ft 339 kts 341°
2026-04-15 03:47 -33.24759 -71.07390 16514 ft 342 kts 341°
2026-04-15 03:47 -33.22513 -71.08268 17244 ft 345 kts 341°
2026-04-15 03:48 -33.20235 -71.09158 17957 ft 349 kts 341°
2026-04-15 03:48 -33.17918 -71.10060 18656 ft 352 kts 341°
2026-04-15 03:48 -33.15604 -71.10961 19328 ft 355 kts 340°
2026-04-15 03:48 -33.13258 -71.11874 19988 ft 358 kts 340°
2026-04-15 03:49 -33.10902 -71.12791 20638 ft 361 kts 340°
2026-04-15 03:49 -33.08501 -71.13726 21311 ft 364 kts 340°
2026-04-15 03:49 -33.06112 -71.14658 21949 ft 367 kts 340°
2026-04-15 03:49 -33.03680 -71.15604 22570 ft 370 kts 340°
2026-04-15 03:50 -33.01225 -71.16560 23180 ft 373 kts 340°
2026-04-15 03:50 -32.98792 -71.17504 23766 ft 376 kts 339°
2026-04-15 03:50 -32.96250 -71.18349 24338 ft 381 kts 345°
2026-04-15 03:50 -32.93640 -71.18872 24903 ft 386 kts 350°
2026-04-15 03:51 -32.90969 -71.19074 25466 ft 390 kts 355°
2026-04-15 03:51 -32.88229 -71.19139 26022 ft 393 kts 355°
2026-04-15 03:51 -32.85484 -71.19184 26540 ft 396 kts 355°
2026-04-15 03:51 -32.82755 -71.19231 27041 ft 399 kts 355°
2026-04-15 03:52 -32.79966 -71.19280 27529 ft 402 kts 354°
2026-04-15 03:52 -32.77195 -71.19327 27991 ft 404 kts 354°
2026-04-15 03:52 -32.74386 -71.19375 28447 ft 407 kts 354°
2026-04-15 03:52 -32.71563 -71.19425 28878 ft 409 kts 354°
2026-04-15 03:53 -32.68710 -71.19476 29291 ft 411 kts 354°
2026-04-15 03:53 -32.65838 -71.19529 29685 ft 413 kts 354°
2026-04-15 03:53 -32.62918 -71.19582 30042 ft 416 kts 353°
2026-04-15 03:53 -32.60033 -71.19635 30122 ft 417 kts 353°
2026-04-15 03:54 -32.54272 -71.19739 30124 ft 408 kts 353°
2026-04-15 03:55 -32.45824 -71.19893 30128 ft 405 kts 353°
2026-04-15 03:55 -32.40239 -71.19997 30125 ft 405 kts 353°
2026-04-15 03:56 -32.34628 -71.20101 30120 ft 406 kts 353°
2026-04-15 03:56 -32.29004 -71.20204 30113 ft 406 kts 353°
2026-04-15 03:57 -32.23362 -71.20306 30107 ft 406 kts 353°
2026-04-15 03:57 -32.17741 -71.20409 30105 ft 406 kts 353°
2026-04-15 03:58 -32.12130 -71.20511 30104 ft 406 kts 353°
2026-04-15 03:58 -32.06519 -71.20613 30103 ft 405 kts 353°
2026-04-15 03:59 -32.00904 -71.20715 30103 ft 405 kts 353°
2026-04-15 03:59 -31.95274 -71.20816 30102 ft 406 kts 353°
2026-04-15 04:00 -31.89621 -71.20921 30103 ft 407 kts 353°
2026-04-15 04:00 -31.83943 -71.21024 30103 ft 407 kts 353°
2026-04-15 04:01 -31.78284 -71.21098 30102 ft 408 kts 355°
2026-04-15 04:01 -31.72633 -71.20798 30097 ft 410 kts 356°
2026-04-15 04:02 -31.66971 -71.20448 29755 ft 406 kts 357°
2026-04-15 04:02 -31.64180 -71.20277 29487 ft 404 kts 357°
2026-04-15 04:02 -31.61378 -71.20107 29308 ft 404 kts 357°
2026-04-15 04:02 -31.58586 -71.19939 29145 ft 405 kts 357°
2026-04-15 04:03 -31.55779 -71.19769 28996 ft 405 kts 357°
2026-04-15 04:03 -31.52961 -71.19599 28857 ft 406 kts 357°
2026-04-15 04:03 -31.50161 -71.19430 28710 ft 404 kts 357°
2026-04-15 04:03 -31.47397 -71.19260 28356 ft 392 kts 357°
2026-04-15 04:04 -31.44702 -71.19094 27413 ft 392 kts 358°
2026-04-15 04:04 -31.41998 -71.18939 26715 ft 399 kts 358°
2026-04-15 04:04 -31.39193 -71.18774 26327 ft 402 kts 358°
2026-04-15 04:04 -31.36398 -71.18604 25896 ft 400 kts 358°
2026-04-15 04:05 -31.33669 -71.18437 25448 ft 397 kts 359°
2026-04-15 04:05 -31.30941 -71.18272 24993 ft 393 kts 359°
2026-04-15 04:05 -31.28196 -71.18106 24531 ft 390 kts 359°
2026-04-15 04:05 -31.25509 -71.17944 24072 ft 387 kts 359°
2026-04-15 04:06 -31.22845 -71.17784 23615 ft 385 kts 359°
2026-04-15 04:06 -31.20201 -71.17625 23160 ft 382 kts 359°
2026-04-15 04:06 -31.17553 -71.17467 22705 ft 379 kts 360°
2026-04-15 04:06 -31.14948 -71.17312 22255 ft 377 kts 360°
2026-04-15 04:07 -31.12340 -71.17156 21805 ft 374 kts
2026-04-15 04:07 -31.09745 -71.17001 21353 ft 372 kts
2026-04-15 04:07 -31.07214 -71.16849 20980 ft 367 kts
2026-04-15 04:07 -31.04681 -71.16697 20656 ft 355 kts
2026-04-15 04:08 -31.02284 -71.16552 20135 ft 340 kts
2026-04-15 04:08 -30.99977 -71.16414 19679 ft 325 kts
2026-04-15 04:08 -30.97765 -71.16282 19273 ft 316 kts
2026-04-15 04:08 -30.95576 -71.16153 18995 ft 315 kts
2026-04-15 04:09 -30.93386 -71.16021 18706 ft 310 kts
2026-04-15 04:09 -30.91245 -71.15891 18405 ft 306 kts
2026-04-15 04:09 -30.89115 -71.15763 18106 ft 301 kts
2026-04-15 04:09 -30.87035 -71.15638 17799 ft 297 kts
2026-04-15 04:10 -30.84995 -71.15515 17453 ft 295 kts
2026-04-15 04:10 -30.82956 -71.15393 17093 ft 294 kts
2026-04-15 04:10 -30.80926 -71.15271 16736 ft 292 kts
2026-04-15 04:10 -30.78904 -71.15151 16381 ft 290 kts
2026-04-15 04:11 -30.76913 -71.15031 16031 ft 289 kts
2026-04-15 04:11 -30.74914 -71.14912 15679 ft 287 kts
2026-04-15 04:11 -30.72929 -71.14794 15327 ft 285 kts
2026-04-15 04:11 -30.70964 -71.14677 14980 ft 284 kts
2026-04-15 04:12 -30.69004 -71.14560 14631 ft 282 kts
2026-04-15 04:12 -30.67057 -71.14445 14281 ft 281 kts
2026-04-15 04:12 -30.65105 -71.14328 13926 ft 279 kts
2026-04-15 04:12 -30.63172 -71.14214 13571 ft 278 kts
2026-04-15 04:13 -30.61261 -71.14100 13224 ft 276 kts
2026-04-15 04:13 -30.59359 -71.13987 12863 ft 275 kts
2026-04-15 04:13 -30.57456 -71.13873 12530 ft 273 kts
2026-04-15 04:13 -30.55550 -71.13760 12184 ft 272 kts
2026-04-15 04:14 -30.53685 -71.13649 11839 ft 271 kts
2026-04-15 04:14 -30.51799 -71.13536 11494 ft 269 kts
2026-04-15 04:14 -30.49943 -71.13425 11154 ft 268 kts
2026-04-15 04:14 -30.48093 -71.13315 10816 ft 267 kts
2026-04-15 04:15 -30.46260 -71.13206 10479 ft 265 kts
2026-04-15 04:15 -30.44433 -71.13097 10170 ft 263 kts
2026-04-15 04:15 -30.42623 -71.12991 10007 ft 262 kts
2026-04-15 04:15 -30.40785 -71.12882 9752 ft 264 kts
2026-04-15 04:16 -30.38953 -71.12773 9386 ft 266 kts
2026-04-15 04:16 -30.37121 -71.12664 9047 ft 267 kts
2026-04-15 04:16 -30.35262 -71.12555 8714 ft 266 kts
2026-04-15 04:16 -30.33399 -71.12445 8386 ft 266 kts
2026-04-15 04:17 -30.31594 -71.12338 8131 ft 262 kts
2026-04-15 04:17 -30.29788 -71.12232 7859 ft 257 kts
2026-04-15 04:17 -30.28018 -71.12128 7576 ft 254 kts
2026-04-15 04:17 -30.26310 -71.12026 7520 ft 240 kts
2026-04-15 04:18 -30.24683 -71.11931 7517 ft 231 kts
2026-04-15 04:18 -30.23064 -71.11816 7339 ft 232 kts
2026-04-15 04:18 -30.21465 -71.11677 7069 ft 230 kts
2026-04-15 04:18 -30.19888 -71.11536 6807 ft 227 kts
2026-04-15 04:19 -30.18318 -71.11398 6547 ft 224 kts
2026-04-15 04:19 -30.16787 -71.11266 6297 ft 221 kts
2026-04-15 04:19 -30.15261 -71.11137 6060 ft 218 kts
2026-04-15 04:19 -30.13777 -71.11011 5859 ft 213 kts
2026-04-15 04:20 -30.12324 -71.10815 5636 ft 209 kts 15°
2026-04-15 04:20 -30.10995 -71.10196 5411 ft 207 kts 30°
2026-04-15 04:20 -30.09764 -71.09352 5207 ft 207 kts 32°
2026-04-15 04:20 -30.08547 -71.08473 5007 ft 207 kts 32°
2026-04-15 04:21 -30.07330 -71.07601 4767 ft 207 kts 32°
2026-04-15 04:21 -30.06120 -71.06747 4622 ft 198 kts 32°
2026-04-15 04:21 -30.04953 -71.05928 4353 ft 195 kts 32°
2026-04-15 04:21 -30.03769 -71.05152 4129 ft 196 kts 26°
2026-04-15 04:22 -30.02483 -71.04677 3824 ft 195 kts 11°
2026-04-15 04:22 -30.01117 -71.04591 3545 ft 196 kts 355°
2026-04-15 04:22 -29.99787 -71.04903 3301 ft 195 kts 340°
2026-04-15 04:22 -29.98584 -71.05576 3160 ft 194 kts 326°
2026-04-15 04:23 -29.97553 -71.06567 2858 ft 192 kts 310°
2026-04-15 04:23 -29.96796 -71.07777 2624 ft 179 kts 297°
2026-04-15 04:23 -29.96252 -71.09013 2379 ft 166 kts 293°
2026-04-15 04:23 -29.95780 -71.10174 2138 ft 153 kts 292°
2026-04-15 04:24 -29.95350 -71.11233 1927 ft 141 kts 293°
2026-04-15 04:24 -29.94927 -71.12263 1756 ft 141 kts 294°
2026-04-15 04:24 -29.94499 -71.13285 1581 ft 142 kts 295°
2026-04-15 04:24 -29.94067 -71.14300 1397 ft 141 kts 295°
2026-04-15 04:25 -29.93631 -71.15322 1210 ft 141 kts 296°
2026-04-15 04:25 -29.93198 -71.16326 1040 ft 141 kts 295°
2026-04-15 04:25 -29.92767 -71.17331 870 ft 140 kts 295°
2026-04-15 04:25 -29.92333 -71.18344 675 ft 140 kts 296°
2026-04-15 04:26 -29.91903 -71.19353 488 ft 136 kts 296°
2026-04-15 04:26 -29.91603 -71.20053 469 ft 57 kts 296°
2026-04-15 04:26 -29.91517 -71.20285 465 ft 8 kts 257°
2026-04-15 04:26 -29.91546 -71.20290 465 ft 5 kts 175°
2026-04-15 04:27 -29.91563 -71.20290 465 ft 0 kts 187°
2026-04-15 04:28 -29.91564 -71.20290 465 ft 1 kts 187°
2026-04-15 04:28 -29.91586 -71.20296 465 ft 5 kts 195°
2026-04-15 04:28 -29.91623 -71.20317 465 ft 6 kts 206°
2026-04-15 04:28 -29.91652 -71.20334 465 ft 4 kts 206°
2026-04-15 04:29 -29.91658 -71.20337 465 ft 0 kts 206°